Location: Hepcat Sky Observatory
(29.9800°N, 95.6500°W)
Time: 12:28:52
(UTC-05:00)

Cosmos 2366 rocket - Visible Passes

Search period start: 20 April 2014 00:00
Search period end: 30 April 2014 00:00
Orbit: 954 x 999 km, 82.9° (Epoch: 19 April)

Date Brightness Start Highest point End Pass type
(mag) Time Alt. Az. Time Alt. Az. Time Alt. Az.
20 Apr 5.0 21:44:07 28° ENE 21:44:07 28° ENE 21:48:03 10° NNE visible
20 Apr 5.6 23:28:45 28° WNW 23:28:45 28° WNW 23:33:15 10° NNW visible
21 Apr 4.0 22:08:53 59° ENE 22:08:53 59° ENE 22:14:20 10° NNE visible
21 Apr 6.3 23:53:30 14° W 23:54:03 14° WNW 23:57:07 10° NW visible
22 Apr 5.6 20:48:57 12° E 20:49:17 12° E 20:51:37 10° ENE visible
22 Apr 4.1 22:33:33 65° WSW 22:33:56 67° W 22:40:03 10° N visible
23 Apr 4.9 21:13:31 25° ESE 21:14:36 26° E 21:19:33 10° NNE visible
23 Apr 5.3 22:58:07 29° WSW 22:59:45 33° W 23:05:14 10° NNW visible
24 Apr 4.0 21:37:57 37° SE 21:40:05 53° E 21:46:00 10° NNE visible
24 Apr 6.3 23:22:33 12° WSW 23:25:43 17° WNW 23:29:30 10° NW visible
25 Apr 4.0 22:02:12 28° SSW 22:05:42 79° W 22:11:51 10° N visible
26 Apr 5.1 20:41:53 10° SE 20:46:27 22° E 20:50:59 10° NE visible
26 Apr 5.1 22:26:12 12° SSW 22:31:28 39° W 22:37:09 10° NNW visible
27 Apr 4.2 21:06:06 10° SSE 21:11:53 45° E 21:17:39 10° NNE visible
27 Apr 6.2 22:53:06 10° WSW 22:57:24 20° WNW 23:01:43 10° NNW visible
28 Apr 3.9 21:31:19 10° S 21:37:28 89° E 21:43:37 10° N visible
29 Apr 5.3 20:14:13 10° SE 20:18:17 19° E 20:22:21 10° NE visible
29 Apr 4.9 21:57:21 10° SSW 22:03:11 46° W 22:09:03 10° N visible
